EZY38XG LFBD-EGBB

Flight info

Callsign EZY38XG
Flight time 1h 23m
Altitude 36000
Route ROYAN DCT MANAK UT183 TIRAV UY110 REN UN862 UPALO UP87 BOLRO UP83 SAM/N0447F350 Q41 SILVA
Aircraft A21N/M-SDE2E3FGHIRWXY/LB1

Departure

Time 2026-05-07 18:45
Airport Bordeaux–Mérignac Airport (LFBD)

Arrival

Time 2026-05-07 20:09
Airport Birmingham Airport (EGBB)
Time Latitude Longitude Altitude Speed Heading
2026-05-07 18:04 44.82854 -0.69970 169 ft 0 kts 15°
2026-05-07 18:35 44.82834 -0.69976 170 ft 4 kts
2026-05-07 18:35 44.82809 -0.69971 169 ft 4 kts 327°
2026-05-07 18:36 44.82797 -0.69951 169 ft 0 kts 286°
2026-05-07 18:39 44.82798 -0.69954 169 ft 2 kts 286°
2026-05-07 18:39 44.82806 -0.69993 169 ft 7 kts 287°
2026-05-07 18:39 44.82823 -0.70073 169 ft 10 kts 286°
2026-05-07 18:39 44.82846 -0.70184 169 ft 13 kts 286°
2026-05-07 18:40 44.82874 -0.70323 169 ft 16 kts 287°
2026-05-07 18:40 44.82873 -0.70480 169 ft 18 kts 250°
2026-05-07 18:40 44.82885 -0.70660 169 ft 20 kts 287°
2026-05-07 18:40 44.82926 -0.70854 169 ft 22 kts 286°
2026-05-07 18:41 44.82966 -0.71065 165 ft 23 kts 287°
2026-05-07 18:41 44.83016 -0.71284 167 ft 25 kts 287°
2026-05-07 18:41 44.83065 -0.71527 168 ft 27 kts 287°
2026-05-07 18:41 44.83122 -0.71785 170 ft 28 kts 287°
2026-05-07 18:42 44.83168 -0.71992 169 ft 13 kts 286°
2026-05-07 18:42 44.83131 -0.72100 170 ft 15 kts 206°
2026-05-07 18:42 44.83025 -0.72149 170 ft 17 kts 211°
2026-05-07 18:42 44.83026 -0.72312 172 ft 19 kts 286°
2026-05-07 18:43 44.83066 -0.72501 168 ft 21 kts 286°
2026-05-07 18:43 44.83107 -0.72703 168 ft 23 kts 286°
2026-05-07 18:43 44.83127 -0.72881 169 ft 9 kts 260°
2026-05-07 18:43 44.83139 -0.72851 169 ft 12 kts 112°
2026-05-07 18:44 44.83122 -0.72748 169 ft 0 kts 107°
2026-05-07 18:44 44.83119 -0.72737 169 ft 8 kts 107°
2026-05-07 18:44 44.83116 -0.72722 169 ft 0 kts 107°
2026-05-07 18:45 44.83047 -0.72411 170 ft 77 kts 105°
2026-05-07 18:45 44.82828 -0.71388 165 ft 144 kts 108°
2026-05-07 18:45 44.82523 -0.69949 643 ft 153 kts 105°
2026-05-07 18:45 44.82224 -0.68481 1452 ft 156 kts 107°
2026-05-07 18:46 44.81810 -0.66895 1906 ft 186 kts 118°
2026-05-07 18:46 44.80916 -0.65561 2701 ft 197 kts 149°
2026-05-07 18:46 44.79510 -0.65360 3444 ft 215 kts 192°
2026-05-07 18:46 44.77994 -0.66251 3693 ft 257 kts 208°
2026-05-07 18:47 44.76525 -0.67862 4104 ft 269 kts 229°
2026-05-07 18:47 44.75737 -0.70193 4112 ft 272 kts 259°
2026-05-07 18:47 44.75641 -0.72847 4071 ft 272 kts 265°
2026-05-07 18:47 44.75363 -0.75464 4015 ft 272 kts 263°
2026-05-07 18:48 44.75198 -0.78160 4011 ft 273 kts 264°
2026-05-07 18:48 44.74990 -0.80790 3998 ft 272 kts 261°
2026-05-07 18:48 44.74959 -0.83450 3980 ft 272 kts 281°
2026-05-07 18:48 44.75606 -0.85946 3988 ft 274 kts 296°
2026-05-07 18:49 44.76622 -0.88241 4006 ft 275 kts 311°
2026-05-07 18:49 44.78119 -0.89877 4611 ft 273 kts 335°
2026-05-07 18:49 44.79956 -0.90538 5586 ft 274 kts 356°
2026-05-07 18:49 44.81865 -0.90543 6630 ft 275 kts
2026-05-07 18:50 44.83793 -0.90484 7575 ft 278 kts
2026-05-07 18:50 44.85745 -0.90442 8541 ft 283 kts 360°
2026-05-07 18:50 44.87616 -0.90414 9441 ft 288 kts 359°
2026-05-07 18:50 44.89647 -0.90391 10336 ft 296 kts 359°
2026-05-07 18:51 44.91792 -0.90370 10784 ft 319 kts 359°
2026-05-07 18:51 44.94084 -0.90362 11156 ft 342 kts 358°
2026-05-07 18:51 44.96550 -0.90365 11500 ft 365 kts 359°
2026-05-07 18:51 44.99161 -0.90366 11942 ft 381 kts 359°
2026-05-07 18:52 45.01824 -0.90357 12655 ft 387 kts 359°
2026-05-07 18:52 45.04544 -0.90344 13422 ft 392 kts 358°
2026-05-07 18:52 45.07288 -0.90331 14117 ft 396 kts 358°
2026-05-07 18:52 45.10054 -0.90319 14746 ft 400 kts 358°
2026-05-07 18:53 45.12889 -0.90303 15381 ft 404 kts 358°
2026-05-07 18:53 45.15716 -0.90282 15991 ft 408 kts 358°
2026-05-07 18:53 45.18571 -0.90268 16583 ft 412 kts 358°
2026-05-07 18:53 45.21460 -0.90253 17171 ft 417 kts 358°
2026-05-07 18:54 45.24372 -0.90236 17746 ft 421 kts 358°
2026-05-07 18:54 45.27319 -0.90217 18296 ft 425 kts 358°
2026-05-07 18:54 45.30268 -0.90294 18772 ft 427 kts 353°
2026-05-07 18:54 45.33205 -0.90996 19262 ft 427 kts 343°
2026-05-07 18:55 45.36090 -0.92061 19766 ft 430 kts 342°
2026-05-07 18:55 45.38986 -0.93175 20258 ft 433 kts 342°
2026-05-07 18:55 45.41909 -0.94297 20737 ft 437 kts 342°
2026-05-07 18:55 45.44848 -0.95419 21220 ft 440 kts 342°
2026-05-07 18:56 45.47819 -0.96548 21717 ft 443 kts 342°
2026-05-07 18:56 45.50781 -0.97671 22213 ft 446 kts 342°
2026-05-07 18:56 45.53828 -0.98825 22738 ft 450 kts 342°
2026-05-07 18:56 45.55887 -0.99608 23071 ft 452 kts 342°
2026-05-07 18:57 45.58936 -1.00765 23566 ft 456 kts 343°
2026-05-07 18:57 45.62000 -1.01932 24023 ft 459 kts 342°
2026-05-07 18:57 45.66163 -1.03230 24609 ft 465 kts 351°
2026-05-07 18:57 45.68347 -1.03363 24903 ft 470 kts 359°
2026-05-07 18:58 45.71626 -1.02933 25342 ft 474 kts
2026-05-07 18:58 45.74913 -1.02335 25748 ft 478 kts
2026-05-07 18:58 45.78257 -1.01714 26159 ft 481 kts
2026-05-07 18:58 45.81590 -1.01119 26601 ft 482 kts
2026-05-07 18:59 45.84891 -1.00551 27102 ft 482 kts
2026-05-07 18:59 45.88255 -0.99970 27606 ft 482 kts
2026-05-07 18:59 45.91570 -0.99398 28112 ft 481 kts
2026-05-07 18:59 45.94905 -0.98821 28614 ft 481 kts
2026-05-07 19:00 45.98223 -0.98240 29128 ft 481 kts
2026-05-07 19:00 46.01579 -0.98261 29617 ft 474 kts 348°
2026-05-07 19:00 46.04721 -0.99525 30078 ft 465 kts 333°
2026-05-07 19:00 46.07608 -1.01583 30482 ft 463 kts 328°
2026-05-07 19:01 46.10426 -1.03680 30902 ft 462 kts 329°
2026-05-07 19:01 46.13340 -1.05798 31316 ft 463 kts 329°
2026-05-07 19:01 46.16219 -1.07846 31742 ft 462 kts 330°
2026-05-07 19:01 46.19118 -1.09887 32148 ft 462 kts 330°
2026-05-07 19:02 46.22007 -1.11913 32539 ft 462 kts 330°
2026-05-07 19:02 46.24889 -1.13940 32935 ft 462 kts 330°
2026-05-07 19:02 46.27778 -1.15986 33322 ft 461 kts 330°
2026-05-07 19:02 46.30657 -1.18027 33688 ft 461 kts 330°
2026-05-07 19:03 46.33538 -1.20069 34039 ft 461 kts 330°
2026-05-07 19:03 46.36448 -1.22131 34379 ft 460 kts 330°
2026-05-07 19:03 46.39310 -1.24163 34684 ft 459 kts 330°
2026-05-07 19:03 46.42175 -1.26200 34982 ft 458 kts 330°
2026-05-07 19:04 46.45037 -1.28236 35271 ft 457 kts 330°
2026-05-07 19:04 46.47887 -1.30271 35552 ft 456 kts 330°
2026-05-07 19:04 46.50734 -1.32316 35823 ft 456 kts 330°
2026-05-07 19:04 46.53578 -1.34352 35991 ft 457 kts 330°
2026-05-07 19:05 46.56441 -1.36384 36019 ft 459 kts 330°
2026-05-07 19:05 46.62236 -1.40527 35985 ft 470 kts 330°
2026-05-07 19:06 46.68127 -1.44747 35965 ft 472 kts 330°
2026-05-07 19:06 46.76942 -1.51111 35966 ft 472 kts 330°
2026-05-07 19:07 46.82837 -1.55374 35964 ft 472 kts 330°
2026-05-07 19:07 46.89057 -1.58631 35959 ft 480 kts 349°
2026-05-07 19:08 46.95723 -1.59361 35981 ft 482 kts 354°
2026-05-07 19:08 47.02425 -1.59953 35969 ft 482 kts 353°
2026-05-07 19:09 47.09144 -1.60647 35968 ft 481 kts 353°
2026-05-07 19:09 47.15802 -1.61335 35966 ft 481 kts 353°
2026-05-07 19:10 47.22461 -1.62217 35969 ft 480 kts 352°
2026-05-07 19:10 47.29114 -1.63110 35967 ft 480 kts 352°
2026-05-07 19:11 47.35771 -1.64008 35967 ft 480 kts 352°
2026-05-07 19:11 47.42426 -1.64947 35974 ft 479 kts 352°
2026-05-07 19:12 47.49110 -1.65894 35976 ft 479 kts 352°
2026-05-07 19:12 47.55752 -1.66836 35976 ft 479 kts 352°
2026-05-07 19:13 47.62375 -1.67799 35990 ft 477 kts 352°
2026-05-07 19:13 47.68985 -1.68746 35986 ft 477 kts 352°
2026-05-07 19:14 47.75601 -1.69682 35981 ft 477 kts 352°
2026-05-07 19:14 47.82264 -1.70638 35997 ft 477 kts 352°
2026-05-07 19:15 47.88869 -1.71581 35993 ft 477 kts 352°
2026-05-07 19:15 47.95481 -1.72538 35996 ft 477 kts 352°
2026-05-07 19:16 48.02092 -1.73506 35996 ft 477 kts 352°
2026-05-07 19:16 48.08705 -1.74230 35995 ft 478 kts 357°
2026-05-07 19:17 48.15371 -1.74326 35993 ft 479 kts 357°
2026-05-07 19:17 48.22028 -1.74402 36002 ft 479 kts 357°
2026-05-07 19:18 48.28700 -1.74482 35995 ft 478 kts 357°
2026-05-07 19:18 48.35350 -1.74580 35998 ft 478 kts 357°
2026-05-07 19:19 48.42006 -1.74661 35999 ft 478 kts 357°
2026-05-07 19:19 48.48674 -1.74726 36015 ft 478 kts 357°
2026-05-07 19:20 48.55376 -1.74801 36009 ft 478 kts 357°
2026-05-07 19:20 48.62026 -1.74883 36014 ft 478 kts 357°
2026-05-07 19:21 48.68681 -1.74973 36004 ft 479 kts 357°
2026-05-07 19:21 48.75346 -1.75057 36006 ft 479 kts 357°
2026-05-07 19:22 48.81997 -1.75119 36015 ft 478 kts 357°
2026-05-07 19:22 48.87558 -1.75192 36009 ft 479 kts 357°
2026-05-07 19:23 48.94238 -1.75134 36011 ft 479 kts 359°
2026-05-07 19:23 49.00903 -1.74861 36009 ft 479 kts 359°
2026-05-07 19:24 49.07605 -1.74604 36023 ft 479 kts 359°
2026-05-07 19:24 49.14251 -1.74358 36015 ft 478 kts 359°
2026-05-07 19:25 49.20888 -1.74104 36014 ft 478 kts 359°
2026-05-07 19:25 49.27531 -1.73861 36015 ft 478 kts 359°
2026-05-07 19:26 49.34182 -1.73618 36022 ft 478 kts 359°
2026-05-07 19:26 49.40829 -1.73358 36024 ft 478 kts 359°
2026-05-07 19:27 49.47473 -1.73094 36025 ft 478 kts 359°
2026-05-07 19:27 49.54137 -1.72840 36025 ft 479 kts 359°
2026-05-07 19:28 49.60842 -1.72520 36021 ft 479 kts
2026-05-07 19:28 49.67500 -1.71978 36024 ft 479 kts
2026-05-07 19:29 49.74155 -1.71423 36028 ft 479 kts
2026-05-07 19:29 49.80833 -1.70856 36027 ft 480 kts
2026-05-07 19:30 49.87508 -1.70287 36030 ft 480 kts
2026-05-07 19:30 49.94167 -1.69702 36034 ft 480 kts
2026-05-07 19:31 50.00799 -1.68517 36027 ft 483 kts 15°
2026-05-07 19:31 50.07008 -1.64468 36047 ft 484 kts 23°
2026-05-07 19:32 50.13156 -1.60204 36035 ft 484 kts 22°
2026-05-07 19:32 50.19383 -1.55995 36042 ft 484 kts 22°
2026-05-07 19:33 50.25555 -1.51773 36035 ft 484 kts 22°
2026-05-07 19:33 50.31714 -1.47520 36035 ft 484 kts 22°
2026-05-07 19:34 50.37867 -1.43294 36041 ft 484 kts 22°
2026-05-07 19:34 50.44026 -1.39045 36045 ft 484 kts 22°
2026-05-07 19:35 50.50127 -1.34833 36031 ft 469 kts 22°
2026-05-07 19:35 50.56061 -1.30729 36037 ft 465 kts 22°
2026-05-07 19:36 50.61997 -1.26613 36055 ft 466 kts 22°
2026-05-07 19:36 50.67927 -1.22495 36058 ft 465 kts 22°
2026-05-07 19:37 50.73885 -1.18332 36054 ft 465 kts 22°
2026-05-07 19:37 50.79798 -1.14195 36054 ft 465 kts 22°
2026-05-07 19:38 50.85685 -1.10064 35635 ft 458 kts 22°
2026-05-07 19:38 50.88606 -1.08026 34764 ft 462 kts 22°
2026-05-07 19:38 50.91587 -1.05944 34244 ft 463 kts 22°
2026-05-07 19:39 50.94541 -1.03871 33884 ft 464 kts 22°
2026-05-07 19:39 50.97486 -1.01792 33573 ft 465 kts 22°
2026-05-07 19:39 51.00448 -0.99696 33286 ft 465 kts 22°
2026-05-07 19:39 51.03396 -0.97606 33016 ft 466 kts 22°
2026-05-07 19:40 51.06367 -0.95501 32753 ft 466 kts 22°
2026-05-07 19:40 51.09366 -0.93370 32471 ft 466 kts 22°
2026-05-07 19:40 51.12327 -0.91267 32204 ft 466 kts 22°
2026-05-07 19:40 51.15563 -0.88953 31926 ft 467 kts 22°
2026-05-07 19:41 51.18254 -0.87031 31696 ft 467 kts 22°
2026-05-07 19:41 51.21231 -0.84916 31439 ft 468 kts 22°
2026-05-07 19:41 51.24238 -0.82769 31201 ft 468 kts 22°
2026-05-07 19:41 51.27176 -0.80659 30958 ft 469 kts 22°
2026-05-07 19:42 51.30184 -0.78506 30723 ft 469 kts 22°
2026-05-07 19:42 51.33171 -0.76372 30509 ft 469 kts 22°
2026-05-07 19:42 51.36185 -0.74207 30274 ft 470 kts 22°
2026-05-07 19:42 51.38193 -0.72759 30120 ft 469 kts 22°
2026-05-07 19:43 51.42186 -0.69865 29777 ft 470 kts 23°
2026-05-07 19:43 51.45178 -0.67707 29525 ft 471 kts 22°
2026-05-07 19:43 51.48158 -0.65554 29244 ft 472 kts 23°
2026-05-07 19:43 51.51161 -0.63372 28975 ft 472 kts 23°
2026-05-07 19:44 51.54149 -0.61206 28698 ft 473 kts 23°
2026-05-07 19:44 51.56181 -0.59736 28479 ft 472 kts 23°
2026-05-07 19:44 51.60142 -0.56857 27444 ft 465 kts 23°
2026-05-07 19:44 51.63090 -0.54704 26550 ft 464 kts 23°
2026-05-07 19:45 51.65069 -0.53262 25987 ft 464 kts 23°
2026-05-07 19:45 51.68006 -0.51124 25214 ft 462 kts 23°
2026-05-07 19:45 51.70926 -0.48992 24464 ft 461 kts 23°
2026-05-07 19:45 51.73840 -0.46858 23733 ft 458 kts 22°
2026-05-07 19:46 51.76840 -0.45185 22911 ft 453 kts 11°
2026-05-07 19:46 51.79926 -0.44665 22291 ft 442 kts 357°
2026-05-07 19:46 51.82951 -0.45297 22070 ft 436 kts 344°
2026-05-07 19:46 51.85768 -0.47016 22029 ft 431 kts 330°
2026-05-07 19:47 51.88350 -0.49454 22043 ft 430 kts 326°
2026-05-07 19:47 51.90921 -0.52004 22036 ft 424 kts 326°
2026-05-07 19:47 51.93411 -0.54458 21395 ft 416 kts 326°
2026-05-07 19:47 51.95891 -0.56893 20374 ft 418 kts 327°
2026-05-07 19:48 51.98398 -0.59352 19360 ft 421 kts 327°
2026-05-07 19:48 52.00856 -0.61829 23986 ft 413 kts 326°
2026-05-07 19:48 52.03306 -0.64236 22994 ft 410 kts 327°
2026-05-07 19:48 52.05751 -0.66595 21858 ft 406 kts 327°
2026-05-07 19:49 52.08161 -0.68939 20756 ft 403 kts 327°
2026-05-07 19:49 52.10549 -0.71294 19673 ft 399 kts 327°
2026-05-07 19:49 52.12941 -0.73641 18638 ft 396 kts 327°
2026-05-07 19:49 52.15300 -0.75953 17536 ft 392 kts 327°
2026-05-07 19:50 52.17642 -0.78256 16468 ft 389 kts 327°
2026-05-07 19:50 52.19939 -0.80525 15963 ft 400 kts 327°
2026-05-07 19:50 52.22285 -0.83044 15636 ft 397 kts 320°
2026-05-07 19:50 52.24172 -0.86279 15358 ft 393 kts 303°
2026-05-07 19:51 52.25398 -0.90150 15083 ft 385 kts 287°
2026-05-07 19:51 52.26065 -0.94367 14805 ft 375 kts 280°
2026-05-07 19:51 52.26602 -0.98499 14503 ft 369 kts 280°
2026-05-07 19:51 52.27133 -1.02563 14205 ft 363 kts 280°
2026-05-07 19:52 52.27664 -1.06571 13895 ft 358 kts 280°
2026-05-07 19:52 52.28192 -1.10500 13559 ft 355 kts 280°
2026-05-07 19:52 52.28724 -1.14428 13228 ft 352 kts 280°
2026-05-07 19:52 52.29251 -1.18299 12911 ft 350 kts 280°
2026-05-07 19:53 52.29771 -1.22155 12597 ft 348 kts 280°
2026-05-07 19:53 52.30285 -1.25967 12299 ft 346 kts 281°
2026-05-07 19:53 52.30803 -1.29809 11993 ft 344 kts 281°
2026-05-07 19:53 52.31312 -1.33600 11696 ft 337 kts 281°
2026-05-07 19:54 52.31803 -1.37262 11457 ft 324 kts 281°
2026-05-07 19:54 52.32276 -1.40811 11225 ft 308 kts 281°
2026-05-07 19:54 52.32739 -1.44279 10886 ft 293 kts 281°
2026-05-07 19:54 52.33149 -1.47353 10616 ft 281 kts 281°
2026-05-07 19:55 52.33559 -1.50446 10397 ft 277 kts 280°
2026-05-07 19:55 52.33965 -1.53503 10127 ft 275 kts 280°
2026-05-07 19:55 52.34367 -1.56538 9870 ft 273 kts 280°
2026-05-07 19:55 52.34759 -1.59511 9605 ft 271 kts 280°
2026-05-07 19:56 52.35158 -1.62553 9339 ft 268 kts 280°
2026-05-07 19:56 52.35535 -1.65522 9069 ft 265 kts 278°
2026-05-07 19:56 52.35621 -1.68510 8766 ft 263 kts 266°
2026-05-07 19:56 52.35508 -1.71489 8447 ft 263 kts 265°
2026-05-07 19:57 52.35382 -1.74478 8111 ft 264 kts 265°
2026-05-07 19:57 52.35259 -1.77480 7771 ft 265 kts 265°
2026-05-07 19:57 52.35139 -1.80532 7425 ft 266 kts 265°
2026-05-07 19:57 52.35021 -1.83562 7095 ft 265 kts 265°
2026-05-07 19:58 52.34907 -1.86527 6876 ft 258 kts 265°
2026-05-07 19:58 52.34793 -1.89424 6574 ft 254 kts 265°
2026-05-07 19:58 52.34668 -1.92311 6260 ft 254 kts 264°
2026-05-07 19:58 52.34543 -1.95222 6062 ft 254 kts 264°
2026-05-07 19:59 52.34423 -1.98101 6007 ft 254 kts 264°
2026-05-07 19:59 52.34305 -2.00978 6077 ft 253 kts 264°
2026-05-07 19:59 52.34194 -2.03844 6039 ft 253 kts 265°
2026-05-07 19:59 52.34091 -2.06706 5933 ft 253 kts 265°
2026-05-07 20:00 52.34332 -2.09535 5787 ft 256 kts 292°
2026-05-07 20:00 52.35466 -2.11773 5628 ft 261 kts 325°
2026-05-07 20:00 52.37186 -2.12701 5449 ft 265 kts 356°
2026-05-07 20:00 52.38975 -2.12093 5255 ft 264 kts 24°
2026-05-07 20:01 52.40571 -2.10647 4907 ft 262 kts 33°
2026-05-07 20:01 52.42053 -2.08987 4590 ft 254 kts 35°
2026-05-07 20:01 52.43479 -2.07352 4245 ft 247 kts 35°
2026-05-07 20:01 52.44881 -2.05740 3892 ft 247 kts 35°
2026-05-07 20:02 52.46299 -2.04109 3498 ft 248 kts 35°
2026-05-07 20:02 52.47707 -2.02486 3026 ft 248 kts 35°
2026-05-07 20:02 52.49114 -2.00856 2677 ft 247 kts 36°
2026-05-07 20:02 52.50508 -1.99244 2462 ft 245 kts 36°
2026-05-07 20:03 52.51883 -1.97658 2427 ft 229 kts 37°
2026-05-07 20:03 52.53157 -1.96186 2442 ft 224 kts 37°
2026-05-07 20:03 52.54394 -1.94762 2464 ft 208 kts 37°
2026-05-07 20:03 52.55585 -1.93389 2534 ft 206 kts 37°
2026-05-07 20:04 52.56696 -1.92099 2523 ft 207 kts 37°
2026-05-07 20:04 52.57848 -1.90659 2498 ft 204 kts 46°
2026-05-07 20:04 52.58442 -1.88761 2465 ft 176 kts 86°
2026-05-07 20:04 52.58106 -1.87040 2422 ft 146 kts 142°
2026-05-07 20:05 52.57201 -1.86567 2466 ft 143 kts 177°
2026-05-07 20:05 52.56224 -1.86289 2493 ft 144 kts 163°
2026-05-07 20:05 52.55305 -1.85639 2475 ft 144 kts 154°
2026-05-07 20:05 52.54429 -1.84808 2337 ft 144 kts 150°
2026-05-07 20:06 52.53588 -1.83907 2182 ft 140 kts 148°
2026-05-07 20:06 52.52791 -1.83030 2021 ft 138 kts 148°
2026-05-07 20:06 52.51997 -1.82148 1816 ft 138 kts 148°
2026-05-07 20:06 52.51198 -1.81261 1605 ft 138 kts 147°
2026-05-07 20:07 52.50401 -1.80375 1390 ft 139 kts 147°
2026-05-07 20:07 52.49589 -1.79471 1185 ft 140 kts 147°
2026-05-07 20:07 52.49055 -1.78878 1055 ft 140 kts 147°
2026-05-07 20:07 52.48250 -1.77983 848 ft 141 kts 148°
2026-05-07 20:08 52.47434 -1.77077 664 ft 141 kts 148°
2026-05-07 20:08 52.46629 -1.76180 452 ft 138 kts 147°
2026-05-07 20:08 52.45855 -1.75312 324 ft 123 kts 146°
2026-05-07 20:08 52.45362 -1.74777 328 ft 50 kts 146°
2026-05-07 20:09 52.45157 -1.74553 335 ft 33 kts 146°
2026-05-07 20:09 52.45024 -1.74407 333 ft 0 kts 146°
2026-05-07 20:09 52.44994 -1.74374 331 ft 11 kts 146°
2026-05-07 20:10 52.44972 -1.74099 330 ft 16 kts 74°
2026-05-07 20:10 52.44999 -1.73928 327 ft 14 kts 76°
2026-05-07 20:10 52.45049 -1.73813 326 ft 9 kts 58°
2026-05-07 20:10 52.45088 -1.73718 326 ft 12 kts 54°
2026-05-07 20:11 52.45140 -1.73616 326 ft 10 kts 50°
2026-05-07 20:11 52.45189 -1.73603 326 ft 9 kts 331°
2026-05-07 20:11 52.45220 -1.73636 327 ft 0 kts 325°